Simultaneous Nadir Overpasses (SNOs) Predictions

Prediction of SNOs between METOP-B and TERRA Satellite Orbit:

Table of predicted SNOs for the next 14.0 days since TLE Epoch: 10/16/2021
Index Date (METOP-B) Time (METOP-B) Lat,Lon (METOP-B) SZA (METOP-B ) Date (TERRA) Time (TERRA) Lat,Lon (TERRA) SZA (TERRA ) Distance(km) Time Diff (sec)
1 10/18/2021 08:33:00 81.25, 96.06 93.81 10/18/2021 08:33:31 81.26, 96.13 93.84 1.42 31
2 10/18/2021 09:23:41 -81.25, -96.50 86.16 10/18/2021 09:22:58 -81.25, -96.31 86.17 3.33 43
3 10/21/2021 04:07:22 81.25, 162.45 94.83 10/21/2021 04:07:41 81.25, 162.57 94.86 2.08 19
4 10/21/2021 04:58:02 -81.26, -29.69 85.10 10/21/2021 04:57:08 -81.25, -29.84 85.15 2.78 54
5 10/23/2021 23:41:45 81.25,-131.17 95.82 10/23/2021 23:41:52 81.25,-131.04 95.84 2.20 7
6 10/24/2021 00:32:24 -81.27, 37.10 84.05 10/24/2021 00:31:18 -81.27, 36.94 84.10 2.65 66
7 10/26/2021 18:25:28 -81.25, 127.81 83.24 10/26/2021 18:26:37 -81.25, 127.66 83.22 2.52 69
8 10/26/2021 19:16:08 81.25, -64.81 96.79 10/26/2021 19:16:03 81.25, -64.70 96.79 1.88 5
9 10/29/2021 13:59:51 -81.24,-166.21 82.35 10/29/2021 14:00:47 -81.24,-166.02 82.30 3.24 56



Historial Predications of SNOs between METOP-B and TERRA
